Time,TemperatureF,DewpointF,PressureIn,WindDirection,WindDirectionDegrees,WindSpeedMPH,WindSpeedGustMPH,Humidity,HourlyPrecipIn,Conditions,Clouds,dailyrainin,SoftwareType,DateUTC
2013-03-05 00:00:00,46.8,39.6,30.11,South,180,0.0,0.0,76,0.00,SCT,,0.00,WeatherDisplay:10.37,2013-03-05 05:00:00,
2013-03-05 00:05:00,46.8,39.6,30.10,South,180,0.0,0.0,76,0.00,SCT,,0.00,WeatherDisplay:10.37,2013-03-05 05:05:00,
2013-03-05 00:10:00,46.4,39.2,30.10,South,180,0.0,0.0,76,0.00,SCT,,0.00,WeatherDisplay:10.37,2013-03-05 05:10:00,
2013-03-05 00:15:00,46.2,39.1,30.10,South,180,0.0,0.0,76,0.00,SCT,,0.00,WeatherDisplay:10.37,2013-03-05 05:15:00,
2013-03-05 00:20:00,46.2,39.4,30.09,South,180,0.0,0.0,77,0.00,SCT,,0.00,WeatherDisplay:10.37,2013-03-05 05:20:00,
2013-03-05 00:25:00,46.0,39.2,30.10,South,180,0.0,0.0,77,0.00,SCT,,0.00,WeatherDisplay:10.37,2013-03-05 05:25:00,
2013-03-05 00:30:00,46.0,39.6,30.10,South,180,0.0,0.0,78,0.00,SCT,,0.00,WeatherDisplay:10.37,2013-03-05 05:30:00,
2013-03-05 00:35:00,45.9,39.4,30.09,South,180,0.0,0.0,78,0.00,SCT,,0.00,WeatherDisplay:10.37,2013-03-05 05:35:00,
2013-03-05 00:40:00,45.7,39.2,30.09,South,180,0.0,0.0,78,0.00,SCT,,0.00,WeatherDisplay:10.37,2013-03-05 05:40:00,
2013-03-05 00:45:00,45.7,39.2,30.09,South,180,0.0,0.0,78,0.00,SCT,,0.00,WeatherDisplay:10.37,2013-03-05 05:45:00,
2013-03-05 00:50:00,45.3,38.9,30.09,South,180,0.0,0.0,78,0.00,SCT,,0.00,WeatherDisplay:10.37,2013-03-05 05:50:00,
2013-03-05 00:55:00,45.3,39.2,30.09,South,180,0.0,0.0,79,0.00,SCT,,0.00,WeatherDisplay:10.37,2013-03-05 05:55:00,
2013-03-05 01:00:00,44.8,38.7,30.08,South,180,0.0,0.0,79,0.00,SCT,,0.00,WeatherDisplay:10.37,2013-03-05 06:00:00,
2013-03-05 01:05:00,44.6,38.5,30.08,South,180,0.0,0.0,79,0.00,SCT,,0.00,WeatherDisplay:10.37,2013-03-05 06:05:00,
2013-03-05 01:10:00,44.4,38.6,30.08,South,180,0.0,0.0,80,0.00,SCT,,0.00,WeatherDisplay:10.37,2013-03-05 06:10:00,
2013-03-05 01:15:00,44.4,38.6,30.08,South,180,0.0,0.0,80,0.00,SCT,,0.00,WeatherDisplay:10.37,2013-03-05 06:15:00,
2013-03-05 01:20:00,44.2,38.8,30.09,South,180,0.0,0.0,81,0.00,SCT,,0.00,WeatherDisplay:10.37,2013-03-05 06:20:00,
2013-03-05 01:25:00,44.2,39.1,30.08,South,180,0.0,0.0,82,0.00,SCT,,0.00,WeatherDisplay:10.37,2013-03-05 06:25:00,
2013-03-05 01:30:00,44.2,39.1,30.08,South,180,0.0,0.0,82,0.00,SCT,,0.00,WeatherDisplay:10.37,2013-03-05 06:30:00,
2013-03-05 01:35:00,44.2,39.1,30.08,South,180,0.1,1.1,82,0.00,SCT,,0.00,WeatherDisplay:10.37,2013-03-05 06:35:00,
2013-03-05 01:40:00,44.2,39.4,30.08,South,180,0.0,0.0,83,0.00,SCT,,0.00,WeatherDisplay:10.37,2013-03-05 06:40:00,
2013-03-05 01:45:00,44.2,39.4,30.07,South,180,0.2,0.0,83,0.00,SCT,,0.00,WeatherDisplay:10.37,2013-03-05 06:45:00,
2013-03-05 01:50:00,44.1,39.2,30.07,South,180,0.0,0.0,83,0.00,SCT,,0.00,WeatherDisplay:10.37,2013-03-05 06:50:00,
2013-03-05 01:55:00,43.9,39.1,30.08,South,180,0.0,0.0,83,0.00,SCT,,0.00,WeatherDisplay:10.37,2013-03-05 06:55:00,
2013-03-05 02:00:00,44.2,39.7,30.08,South,180,0.0,1.1,84,0.00,FEW,,0.00,WeatherDisplay:10.37,2013-03-05 07:00:00,
2013-03-05 02:05:00,44.2,39.1,30.07,South,180,0.0,0.0,82,0.00,FEW,,0.00,WeatherDisplay:10.37,2013-03-05 07:05:00,
2013-03-05 02:10:00,44.4,39.3,30.08,South,180,0.0,1.1,82,0.00,FEW,,0.00,WeatherDisplay:10.37,2013-03-05 07:10:00,
2013-03-05 02:15:00,44.4,39.0,30.07,South,180,0.0,0.0,81,0.00,FEW,,0.00,WeatherDisplay:10.37,2013-03-05 07:15:00,
2013-03-05 02:20:00,44.8,38.7,30.07,South,180,0.3,1.1,79,0.00,FEW,,0.00,WeatherDisplay:10.37,2013-03-05 07:20:00,
2013-03-05 02:25:00,45.3,38.5,30.07,SE,135,0.1,2.8,77,0.00,FEW,,0.00,WeatherDisplay:10.37,2013-03-05 07:25:00,
2013-03-05 02:30:00,45.9,38.7,30.07,South,180,0.3,0.0,76,0.00,FEW,,0.00,WeatherDisplay:10.37,2013-03-05 07:30:00,
2013-03-05 02:35:00,46.0,38.9,30.07,SE,135,0.0,0.0,76,0.00,FEW,,0.00,WeatherDisplay:10.37,2013-03-05 07:35:00,
2013-03-05 02:40:00,46.0,38.9,30.08,SE,135,0.0,0.0,76,0.00,FEW,,0.00,WeatherDisplay:10.37,2013-03-05 07:40:00,
2013-03-05 02:45:00,46.0,38.9,30.08,SE,135,0.0,0.0,76,0.00,FEW,,0.00,WeatherDisplay:10.37,2013-03-05 07:45:00,
2013-03-05 02:50:00,46.2,38.7,30.08,SE,135,0.2,1.1,75,0.00,FEW,,0.00,WeatherDisplay:10.37,2013-03-05 07:50:00,
2013-03-05 02:55:00,46.8,38.9,30.07,SE,135,0.4,2.3,74,0.00,FEW,,0.00,WeatherDisplay:10.37,2013-03-05 07:55:00,
2013-03-05 03:00:00,46.9,38.7,30.07,SE,135,0.1,1.4,73,0.00,FEW,,0.00,WeatherDisplay:10.37,2013-03-05 08:00:00,
2013-03-05 03:04:00,47.1,38.6,30.07,South,180,0.1,2.3,72,0.00,FEW,,0.00,WeatherDisplay:10.37,2013-03-05 08:04:00,
2013-03-05 03:09:00,47.5,38.5,30.07,South,180,0.0,0.0,71,0.00,FEW,,0.00,WeatherDisplay:10.37,2013-03-05 08:09:00,
2013-03-05 03:14:00,47.3,38.4,30.07,South,180,0.2,0.0,71,0.00,FEW,,0.00,WeatherDisplay:10.37,2013-03-05 08:14:00,
2013-03-05 03:19:00,47.1,37.8,30.07,South,180,0.1,1.1,70,0.00,FEW,,0.00,WeatherDisplay:10.37,2013-03-05 08:19:00,
2013-03-05 03:24:00,46.9,38.0,30.08,South,180,0.0,0.0,71,0.00,FEW,,0.00,WeatherDisplay:10.37,2013-03-05 08:24:00,
2013-03-05 03:29:00,46.8,38.2,30.09,South,180,0.0,0.0,72,0.00,FEW,,0.00,WeatherDisplay:10.37,2013-03-05 08:29:00,
2013-03-05 03:34:00,46.4,37.9,30.08,South,180,0.0,0.0,72,0.00,FEW,,0.00,WeatherDisplay:10.37,2013-03-05 08:34:00,
2013-03-05 03:39:00,46.0,37.5,30.09,South,180,0.0,0.0,72,0.00,FEW,,0.00,WeatherDisplay:10.37,2013-03-05 08:39:00,
2013-03-05 03:44:00,45.7,37.5,30.09,South,180,0.1,1.1,73,0.00,FEW,,0.00,WeatherDisplay:10.37,2013-03-05 08:44:00,
2013-03-05 03:49:00,45.3,37.9,30.09,South,180,0.0,0.0,75,0.00,FEW,,0.00,WeatherDisplay:10.37,2013-03-05 08:49:00,
2013-03-05 03:55:00,44.8,37.7,30.09,South,180,0.0,0.0,76,0.00,FEW,,0.00,WeatherDisplay:10.37,2013-03-05 08:55:00,
2013-03-05 04:00:00,44.4,37.7,30.09,South,180,0.0,0.0,77,0.00,BKN,,0.00,WeatherDisplay:10.37,2013-03-05 09:00:00,
2013-03-05 04:05:00,44.1,37.6,30.09,South,180,0.0,0.0,78,0.00,BKN,,0.00,WeatherDisplay:10.37,2013-03-05 09:05:00,
2013-03-05 04:09:00,43.5,37.8,30.10,South,180,0.0,0.0,80,0.00,BKN,,0.00,WeatherDisplay:10.37,2013-03-05 09:09:00,
2013-03-05 04:14:00,43.2,37.4,30.10,South,180,0.0,0.0,80,0.00,BKN,,0.00,WeatherDisplay:10.37,2013-03-05 09:14:00,
2013-03-05 04:19:00,43.0,37.5,30.10,South,180,0.0,0.0,81,0.00,BKN,,0.00,WeatherDisplay:10.37,2013-03-05 09:19:00,
2013-03-05 04:24:00,42.6,37.2,30.10,South,180,0.0,0.0,81,0.00,BKN,,0.00,WeatherDisplay:10.37,2013-03-05 09:24:00,
2013-03-05 04:29:00,42.1,36.7,30.10,South,180,0.0,0.0,81,0.00,BKN,,0.00,WeatherDisplay:10.37,2013-03-05 09:29:00,
2013-03-05 04:34:00,41.7,36.6,30.10,South,180,0.0,0.0,82,0.00,BKN,,0.00,WeatherDisplay:10.37,2013-03-05 09:34:00,
2013-03-05 04:39:00,41.5,36.1,30.10,South,180,0.0,0.0,81,0.00,BKN,,0.00,WeatherDisplay:10.37,2013-03-05 09:39:00,
2013-03-05 04:44:00,40.8,36.1,30.10,South,180,0.0,0.0,83,0.00,BKN,,0.00,WeatherDisplay:10.37,2013-03-05 09:44:00,
2013-03-05 04:49:00,40.6,35.9,30.10,South,180,0.0,0.0,83,0.00,BKN,,0.00,WeatherDisplay:10.37,2013-03-05 09:49:00,
2013-03-05 04:54:00,40.3,35.8,30.10,South,180,0.0,0.0,84,0.00,BKN,,0.00,WeatherDisplay:10.37,2013-03-05 09:54:00,
2013-03-05 04:59:00,40.1,36.0,30.11,South,180,0.0,0.0,85,0.00,FEW,,0.00,WeatherDisplay:10.37,2013-03-05 09:59:00,
2013-03-05 05:04:00,39.9,35.8,30.11,South,180,0.0,0.0,85,0.00,FEW,,0.00,WeatherDisplay:10.37,2013-03-05 10:04:00,
2013-03-05 05:09:00,39.7,35.6,30.11,South,180,0.0,0.0,85,0.00,FEW,,0.00,WeatherDisplay:10.37,2013-03-05 10:09:00,
2013-03-05 05:14:00,39.4,35.5,30.11,South,180,0.0,0.0,86,0.00,FEW,,0.00,WeatherDisplay:10.37,2013-03-05 10:14:00,
2013-03-05 05:19:00,39.0,35.2,30.11,South,180,0.0,0.0,86,0.00,FEW,,0.00,WeatherDisplay:10.37,2013-03-05 10:19:00,
2013-03-05 05:24:00,38.8,35.0,30.11,South,180,0.0,0.0,86,0.00,FEW,,0.00,WeatherDisplay:10.37,2013-03-05 10:24:00,
2013-03-05 05:29:00,38.7,34.8,30.11,South,180,0.0,0.0,86,0.00,FEW,,0.00,WeatherDisplay:10.37,2013-03-05 10:29:00,
2013-03-05 05:34:00,38.5,34.9,30.11,South,180,0.0,0.0,87,0.00,FEW,,0.00,WeatherDisplay:10.37,2013-03-05 10:34:00,
2013-03-05 05:39:00,38.5,35.2,30.12,South,180,0.0,0.0,88,0.00,FEW,,0.00,WeatherDisplay:10.37,2013-03-05 10:39:00,
2013-03-05 05:44:00,38.5,35.5,30.13,South,180,0.0,0.0,89,0.00,FEW,,0.00,WeatherDisplay:10.37,2013-03-05 10:44:00,
2013-03-05 05:49:00,38.7,35.7,30.13,South,180,0.0,0.0,89,0.00,FEW,,0.00,WeatherDisplay:10.37,2013-03-05 10:49:00,
2013-03-05 05:54:00,38.7,35.7,30.13,South,180,0.0,0.0,89,0.00,FEW,,0.00,WeatherDisplay:10.37,2013-03-05 10:54:00,
2013-03-05 05:59:00,38.7,35.7,30.13,South,180,0.0,0.0,89,0.00,BKN,,0.00,WeatherDisplay:10.37,2013-03-05 10:59:00,
2013-03-05 06:04:00,38.8,35.9,30.13,South,180,0.0,0.0,89,0.00,BKN,,0.00,WeatherDisplay:10.37,2013-03-05 11:04:00,
2013-03-05 06:09:00,39.0,36.3,30.13,South,180,0.0,0.0,90,0.00,BKN,,0.00,WeatherDisplay:10.37,2013-03-05 11:09:00,
2013-03-05 06:14:00,39.0,36.1,30.13,South,180,0.0,0.0,89,0.00,BKN,,0.00,WeatherDisplay:10.37,2013-03-05 11:14:00,
2013-03-05 06:19:00,39.0,36.1,30.13,South,180,0.0,0.0,89,0.00,BKN,,0.00,WeatherDisplay:10.37,2013-03-05 11:19:00,
2013-03-05 06:24:00,39.0,36.1,30.14,South,180,0.0,0.0,89,0.00,BKN,,0.00,WeatherDisplay:10.37,2013-03-05 11:24:00,
2013-03-05 06:29:00,39.4,36.7,30.14,South,180,0.0,0.0,90,0.00,BKN,,0.00,WeatherDisplay:10.37,2013-03-05 11:29:00,
2013-03-05 06:34:00,39.6,36.9,30.14,South,180,0.0,0.0,90,0.00,BKN,,0.00,WeatherDisplay:10.37,2013-03-05 11:34:00,
2013-03-05 06:39:00,39.4,36.7,30.14,South,180,0.0,0.0,90,0.00,BKN,,0.00,WeatherDisplay:10.37,2013-03-05 11:39:00,
2013-03-05 06:44:00,39.4,36.7,30.14,South,180,0.0,0.0,90,0.00,BKN,,0.00,WeatherDisplay:10.37,2013-03-05 11:44:00,
2013-03-05 06:49:00,39.2,36.5,30.15,South,180,0.0,0.0,90,0.00,BKN,,0.00,WeatherDisplay:10.37,2013-03-05 11:49:00,
2013-03-05 06:54:00,39.0,36.3,30.15,South,180,0.0,0.0,90,0.00,BKN,,0.00,WeatherDisplay:10.37,2013-03-05 11:54:00,
2013-03-05 06:59:00,38.8,35.9,30.15,South,180,0.0,0.0,89,0.00,BKN,,0.00,WeatherDisplay:10.37,2013-03-05 11:59:00,
2013-03-05 07:04:00,38.8,36.2,30.15,South,180,0.0,0.0,90,0.00,BKN,,0.00,WeatherDisplay:10.37,2013-03-05 12:04:00,
2013-03-05 07:09:00,38.8,35.9,30.15,South,180,0.0,0.0,89,0.00,BKN,,0.00,WeatherDisplay:10.37,2013-03-05 12:09:00,
2013-03-05 07:14:00,38.8,36.2,30.15,South,180,0.0,0.0,90,0.00,BKN,,0.00,WeatherDisplay:10.37,2013-03-05 12:14:00,
2013-03-05 07:19:00,38.7,36.0,30.14,South,180,0.0,0.0,90,0.00,BKN,,0.00,WeatherDisplay:10.37,2013-03-05 12:19:00,
2013-03-05 07:24:00,38.8,36.2,30.14,South,180,0.0,0.0,90,0.00,BKN,,0.00,WeatherDisplay:10.37,2013-03-05 12:24:00,
2013-03-05 07:29:00,39.0,36.6,30.14,South,180,0.0,0.0,91,0.00,BKN,,0.00,WeatherDisplay:10.37,2013-03-05 12:29:00,
2013-03-05 07:34:00,39.6,37.2,30.14,South,180,0.0,0.0,91,0.00,BKN,,0.00,WeatherDisplay:10.37,2013-03-05 12:34:00,
2013-03-05 07:39:00,39.9,37.5,30.15,South,180,0.0,0.0,91,0.00,BKN,,0.00,WeatherDisplay:10.37,2013-03-05 12:39:00,
2013-03-05 07:44:00,40.6,37.9,30.14,South,180,0.0,0.0,90,0.00,BKN,,0.00,WeatherDisplay:10.37,2013-03-05 12:44:00,
2013-03-05 07:49:00,41.5,39.1,30.14,South,180,0.0,0.0,91,0.00,BKN,,0.00,WeatherDisplay:10.37,2013-03-05 12:49:00,
2013-03-05 07:54:00,42.1,39.4,30.14,South,180,0.0,0.0,90,0.00,BKN,,0.00,WeatherDisplay:10.37,2013-03-05 12:54:00,
2013-03-05 07:59:00,42.6,39.6,30.15,South,180,0.0,0.0,89,0.00,SCT,,0.00,WeatherDisplay:10.37,2013-03-05 12:59:00,
2013-03-05 08:04:00,43.0,39.7,30.14,South,180,0.0,0.0,88,0.00,SCT,,0.00,WeatherDisplay:10.37,2013-03-05 13:04:00,
2013-03-05 08:09:00,43.2,39.8,30.15,South,180,0.0,0.0,88,0.00,SCT,,0.00,WeatherDisplay:10.37,2013-03-05 13:09:00,
2013-03-05 08:14:00,43.3,40.0,30.15,South,180,0.0,0.0,88,0.00,SCT,,0.00,WeatherDisplay:10.37,2013-03-05 13:14:00,
2013-03-05 08:19:00,44.2,40.6,30.15,South,180,0.0,0.0,87,0.00,SCT,,0.00,WeatherDisplay:10.37,2013-03-05 13:19:00,
2013-03-05 08:24:00,45.0,40.7,30.15,South,180,0.0,0.0,85,0.00,SCT,,0.00,WeatherDisplay:10.37,2013-03-05 13:24:00,
2013-03-05 08:29:00,46.0,41.5,30.15,South,180,0.0,0.0,84,0.00,SCT,,0.00,WeatherDisplay:10.37,2013-03-05 13:29:00,
2013-03-05 08:34:00,46.6,41.7,30.15,South,180,0.0,0.0,83,0.00,SCT,,0.00,WeatherDisplay:10.37,2013-03-05 13:34:00,
2013-03-05 08:39:00,48.0,40.8,30.15,South,180,0.0,0.0,76,0.00,SCT,,0.00,WeatherDisplay:10.37,2013-03-05 13:39:00,
2013-03-05 08:44:00,49.1,40.8,30.15,South,180,0.2,2.3,73,0.00,SCT,,0.00,WeatherDisplay:10.37,2013-03-05 13:44:00,
2013-03-05 08:49:00,50.7,41.3,30.15,SE,135,0.0,0.0,70,0.00,SCT,,0.00,WeatherDisplay:10.37,2013-03-05 13:49:00,
2013-03-05 08:54:00,51.6,41.8,30.15,SE,135,0.3,2.3,69,0.00,SCT,,0.00,WeatherDisplay:10.37,2013-03-05 13:54:00,
2013-03-05 08:59:00,52.5,41.1,30.15,SW,225,0.1,1.1,65,0.00,FEW,,0.00,WeatherDisplay:10.37,2013-03-05 13:59:00,
2013-03-05 09:04:00,53.4,41.1,30.15,SW,225,1.8,2.8,63,0.00,FEW,,0.00,WeatherDisplay:10.37,2013-03-05 14:04:00,
2013-03-05 09:09:00,54.1,41.4,30.14,South,180,1.1,4.6,62,0.00,FEW,,0.00,WeatherDisplay:10.37,2013-03-05 14:09:00,
2013-03-05 09:14:00,54.7,41.9,30.14,SW,225,0.1,1.4,62,0.00,FEW,,0.00,WeatherDisplay:10.37,2013-03-05 14:14:00,
2013-03-05 09:19:00,55.6,42.3,30.14,SW,225,1.1,2.8,61,0.00,FEW,,0.00,WeatherDisplay:10.37,2013-03-05 14:19:00,
2013-03-05 09:24:00,56.1,42.4,30.14,SW,225,0.8,2.3,60,0.00,FEW,,0.00,WeatherDisplay:10.37,2013-03-05 14:24:00,
2013-03-05 09:29:00,56.5,42.8,30.13,South,180,0.1,2.3,60,0.00,FEW,,0.00,WeatherDisplay:10.37,2013-03-05 14:29:00,
2013-03-05 09:34:00,57.6,42.4,30.13,SE,135,1.0,4.6,57,0.00,FEW,,0.00,WeatherDisplay:10.37,2013-03-05 14:34:00,
2013-03-05 09:39:00,58.6,43.4,30.13,SE,135,0.0,0.0,57,0.00,FEW,,0.00,WeatherDisplay:10.37,2013-03-05 14:39:00,
2013-03-05 09:44:00,60.1,42.4,30.13,West,270,1.6,2.3,52,0.00,FEW,,0.00,WeatherDisplay:10.37,2013-03-05 14:44:00,
2013-03-05 09:49:00,61.9,43.0,30.13,SW,225,0.9,2.3,50,0.00,FEW,,0.00,WeatherDisplay:10.37,2013-03-05 14:49:00,
2013-03-05 09:54:00,62.1,42.7,30.13,South,180,0.3,1.4,49,0.00,FEW,,0.00,WeatherDisplay:10.37,2013-03-05 14:54:00,
2013-03-05 09:59:00,61.7,41.8,30.12,SW,225,0.9,2.3,48,0.00,FEW,,0.00,WeatherDisplay:10.37,2013-03-05 14:59:00,
2013-03-05 10:04:00,62.4,42.5,30.12,SW,225,1.2,2.4,48,0.00,FEW,,0.00,WeatherDisplay:10.37,2013-03-05 15:04:00,
2013-03-05 10:09:00,63.1,42.0,30.11,West,270,1.0,2.3,46,0.00,FEW,,0.00,WeatherDisplay:10.37,2013-03-05 15:09:00,
2013-03-05 10:14:00,63.1,42.0,30.11,West,270,0.4,2.3,46,0.00,FEW,,0.00,WeatherDisplay:10.37,2013-03-05 15:14:00,
2013-03-05 10:19:00,63.7,41.3,30.11,South,180,2.3,5.8,44,0.00,FEW,,0.00,WeatherDisplay:10.37,2013-03-05 15:19:00,
2013-03-05 10:24:00,64.0,42.3,30.11,SW,225,0.5,2.3,45,0.00,FEW,,0.00,WeatherDisplay:10.37,2013-03-05 15:24:00,
2013-03-05 10:29:00,64.4,42.6,30.12,SW,225,1.8,4.6,45,0.00,FEW,,0.00,WeatherDisplay:10.37,2013-03-05 15:29:00,
2013-03-05 10:34:00,64.4,42.6,30.12,South,180,1.8,5.8,45,0.00,FEW,,0.00,WeatherDisplay:10.37,2013-03-05 15:34:00,
2013-03-05 10:39:00,65.5,43.6,30.12,West,270,0.5,2.8,45,0.00,FEW,,0.00,WeatherDisplay:10.37,2013-03-05 15:39:00,
2013-03-05 10:44:00,66.4,42.6,30.12,SW,225,2.1,4.6,42,0.00,FEW,,0.00,WeatherDisplay:10.37,2013-03-05 15:44:00,
2013-03-05 10:49:00,65.5,43.0,30.12,SW,225,1.5,4.6,44,0.00,FEW,,0.00,WeatherDisplay:10.37,2013-03-05 15:49:00,
2013-03-05 10:54:00,66.7,42.9,30.12,SW,225,1.0,2.3,42,0.00,FEW,,0.00,WeatherDisplay:10.37,2013-03-05 15:54:00,
2013-03-05 10:59:00,67.3,42.8,30.12,SW,225,2.2,5.8,41,0.00,SCT,,0.00,WeatherDisplay:10.37,2013-03-05 15:59:00,
2013-03-05 11:04:00,67.3,42.8,30.12,SW,225,1.0,5.6,41,0.00,SCT,,0.00,WeatherDisplay:10.37,2013-03-05 16:04:00,
2013-03-05 11:09:00,67.3,43.4,30.12,SW,225,1.7,2.8,42,0.00,SCT,,0.00,WeatherDisplay:10.37,2013-03-05 16:09:00,
2013-03-05 11:14:00,69.1,44.4,30.11,SW,225,1.7,2.8,41,0.00,SCT,,0.00,WeatherDisplay:10.37,2013-03-05 16:14:00,
2013-03-05 11:19:00,69.3,44.5,30.11,SW,225,2.1,5.8,41,0.00,SCT,,0.00,WeatherDisplay:10.37,2013-03-05 16:19:00,
2013-03-05 11:24:00,69.3,43.9,30.10,SW,225,1.0,4.6,40,0.00,SCT,,0.00,WeatherDisplay:10.37,2013-03-05 16:24:00,
2013-03-05 11:29:00,68.7,44.1,30.10,SW,225,2.4,5.8,41,0.00,SCT,,0.00,WeatherDisplay:10.37,2013-03-05 16:29:00,
2013-03-05 11:34:00,68.9,44.2,30.10,SW,225,1.7,5.8,41,0.00,SCT,,0.00,WeatherDisplay:10.37,2013-03-05 16:34:00,
2013-03-05 11:39:00,71.1,44.2,30.09,South,180,0.7,2.3,38,0.00,SCT,,0.00,WeatherDisplay:10.37,2013-03-05 16:39:00,
2013-03-05 11:44:00,70.9,44.7,30.09,South,180,0.7,2.3,39,0.00,SCT,,0.00,WeatherDisplay:10.37,2013-03-05 16:44:00,
2013-03-05 11:49:00,70.3,42.8,30.09,West,270,1.3,2.3,37,0.00,SCT,,0.00,WeatherDisplay:10.37,2013-03-05 16:49:00,
2013-03-05 11:54:00,70.5,45.0,30.09,SW,225,1.0,2.8,40,0.00,SCT,,0.00,WeatherDisplay:10.37,2013-03-05 16:54:00,
2013-03-05 11:59:00,71.8,43.4,30.09,SW,225,1.7,4.6,36,0.00,SCT,,0.00,WeatherDisplay:10.37,2013-03-05 16:59:00,
2013-03-05 12:04:00,72.3,43.1,30.08,SW,225,2.0,4.6,35,0.00,SCT,,0.00,WeatherDisplay:10.37,2013-03-05 17:04:00,
2013-03-05 12:09:00,72.5,43.3,30.08,SE,135,0.5,2.3,35,0.00,SCT,,0.00,WeatherDisplay:10.37,2013-03-05 17:09:00,
2013-03-05 12:14:00,72.7,42.7,30.08,South,180,0.7,2.3,34,0.00,SCT,,0.00,WeatherDisplay:10.37,2013-03-05 17:14:00,
2013-03-05 12:19:00,72.9,42.8,30.08,SW,225,0.0,1.4,34,0.00,SCT,,0.00,WeatherDisplay:10.37,2013-03-05 17:19:00,
2013-03-05 12:24:00,73.2,42.4,30.06,SW,225,1.8,4.6,33,0.00,SCT,,0.00,WeatherDisplay:10.37,2013-03-05 17:24:00,
2013-03-05 12:29:00,73.0,43.0,30.07,SW,225,2.5,5.8,34,0.00,SCT,,0.00,WeatherDisplay:10.37,2013-03-05 17:29:00,
2013-03-05 12:34:00,73.0,43.0,30.06,SW,225,0.7,4.6,34,0.00,SCT,,0.00,WeatherDisplay:10.37,2013-03-05 17:34:00,
2013-03-05 12:39:00,73.6,41.9,30.06,SW,225,0.2,0.0,32,0.00,SCT,,0.00,WeatherDisplay:10.37,2013-03-05 17:39:00,
2013-03-05 12:44:00,74.1,42.4,30.05,West,270,0.3,4.6,32,0.00,SCT,,0.00,WeatherDisplay:10.37,2013-03-05 17:44:00,
2013-03-05 12:49:00,75.0,43.1,30.05,South,180,0.1,2.8,32,0.00,SCT,,0.00,WeatherDisplay:10.37,2013-03-05 17:49:00,
2013-03-05 12:54:00,74.8,43.8,30.04,South,180,0.6,0.0,33,0.00,SCT,,0.00,WeatherDisplay:10.37,2013-03-05 17:54:00,
2013-03-05 12:59:00,74.7,42.8,30.04,SW,225,1.9,2.8,32,0.00,FEW,,0.00,WeatherDisplay:10.37,2013-03-05 17:59:00,
2013-03-05 13:04:00,74.8,43.0,30.03,East,90,1.8,2.8,32,0.00,FEW,,0.00,WeatherDisplay:10.37,2013-03-05 18:04:00,
2013-03-05 13:08:00,73.6,42.7,30.03,West,270,0.7,5.8,33,0.00,FEW,,0.00,WeatherDisplay:10.37,2013-03-05 18:08:00,
2013-03-05 13:13:00,73.0,43.0,30.03,South,180,1.0,4.6,34,0.00,FEW,,0.00,WeatherDisplay:10.37,2013-03-05 18:13:00,
2013-03-05 13:19:00,72.7,42.7,30.02,SW,225,0.4,4.6,34,0.00,FEW,,0.00,WeatherDisplay:10.37,2013-03-05 18:19:00,
2013-03-05 13:24:00,72.7,43.4,30.02,South,180,0.1,2.3,35,0.00,FEW,,0.00,WeatherDisplay:10.37,2013-03-05 18:24:00,
2013-03-05 13:29:00,72.7,42.7,30.02,SW,225,2.3,5.8,34,0.00,FEW,,0.00,WeatherDisplay:10.37,2013-03-05 18:29:00,
2013-03-05 13:34:00,72.7,43.4,30.02,SW,225,1.2,4.6,35,0.00,FEW,,0.00,WeatherDisplay:10.37,2013-03-05 18:34:00,
2013-03-05 13:38:00,73.0,43.8,30.01,SE,135,1.1,4.6,35,0.00,FEW,,0.00,WeatherDisplay:10.37,2013-03-05 18:38:00,
2013-03-05 13:43:00,73.6,45.7,30.00,SE,135,1.3,4.6,37,0.00,FEW,,0.00,WeatherDisplay:10.37,2013-03-05 18:43:00,
2013-03-05 13:48:00,73.2,44.7,30.00,SW,225,1.2,4.6,36,0.00,FEW,,0.00,WeatherDisplay:10.37,2013-03-05 18:48:00,
2013-03-05 13:53:00,73.2,46.1,30.00,SW,225,1.7,5.8,38,0.00,FEW,,0.00,WeatherDisplay:10.37,2013-03-05 18:53:00,
2013-03-05 13:58:00,73.2,45.4,30.00,SE,135,1.1,5.8,37,0.00,FEW,,0.00,WeatherDisplay:10.37,2013-03-05 18:58:00,
2013-03-05 14:03:00,73.8,45.9,30.00,South,180,0.7,6.3,37,0.00,FEW,,0.00,WeatherDisplay:10.37,2013-03-05 19:03:00,
2013-03-05 14:08:00,73.8,45.1,30.00,SW,225,2.3,5.8,36,0.00,SCT,,0.00,WeatherDisplay:10.37,2013-03-05 19:08:00,
2013-03-05 14:13:00,73.6,45.7,29.99,SE,135,1.6,5.8,37,0.00,SCT,,0.00,WeatherDisplay:10.37,2013-03-05 19:13:00,
2013-03-05 14:18:00,74.1,46.2,29.99,SW,225,0.6,2.3,37,0.00,SCT,,0.00,WeatherDisplay:10.37,2013-03-05 19:18:00,
2013-03-05 14:23:00,74.3,46.3,29.99,SW,225,0.5,2.3,37,0.00,SCT,,0.00,WeatherDisplay:10.37,2013-03-05 19:23:00,
2013-03-05 14:28:00,73.9,46.7,29.99,South,180,1.0,2.3,38,0.00,SCT,,0.00,WeatherDisplay:10.37,2013-03-05 19:28:00,
2013-03-05 14:33:00,73.6,47.1,29.99,SW,225,1.4,4.6,39,0.00,SCT,,0.00,WeatherDisplay:10.37,2013-03-05 19:33:00,
2013-03-05 14:38:00,73.8,46.6,29.98,SW,225,2.0,4.6,38,0.00,SCT,,0.00,WeatherDisplay:10.37,2013-03-05 19:38:00,
2013-03-05 14:43:00,73.6,46.4,29.98,SW,225,0.7,4.2,38,0.00,SCT,,0.00,WeatherDisplay:10.37,2013-03-05 19:43:00,
2013-03-05 14:48:00,73.6,47.1,29.99,West,270,0.8,4.6,39,0.00,SCT,,0.00,WeatherDisplay:10.37,2013-03-05 19:48:00,
2013-03-05 14:53:00,74.3,47.7,29.99,SE,135,0.5,2.8,39,0.00,SCT,,0.00,WeatherDisplay:10.37,2013-03-05 19:53:00,
2013-03-05 14:58:00,74.8,48.2,29.99,SW,225,3.5,8.4,39,0.00,SCT,,0.00,WeatherDisplay:10.37,2013-03-05 19:58:00,
2013-03-05 15:03:00,74.5,49.2,29.99,SW,225,0.2,4.6,41,0.00,SCT,,0.00,WeatherDisplay:10.37,2013-03-05 20:03:00,
2013-03-05 15:08:00,74.3,49.1,29.98,SW,225,1.1,5.8,41,0.00,BKN,,0.00,WeatherDisplay:10.37,2013-03-05 20:08:00,
2013-03-05 15:13:00,74.5,49.9,29.97,SW,225,1.8,4.6,42,0.00,BKN,,0.00,WeatherDisplay:10.37,2013-03-05 20:13:00,
2013-03-05 15:18:00,74.8,50.8,29.97,SW,225,1.5,5.8,43,0.00,BKN,,0.00,WeatherDisplay:10.37,2013-03-05 20:18:00,
2013-03-05 15:23:00,74.8,52.1,29.97,SW,225,1.7,4.6,45,0.00,BKN,,0.00,WeatherDisplay:10.37,2013-03-05 20:23:00,
2013-03-05 15:28:00,74.7,51.9,29.97,SW,225,3.0,6.3,45,0.00,BKN,,0.00,WeatherDisplay:10.37,2013-03-05 20:28:00,
2013-03-05 15:33:00,74.1,52.0,29.97,West,270,2.4,4.6,46,0.00,BKN,,0.00,WeatherDisplay:10.37,2013-03-05 20:33:00,
2013-03-05 15:38:00,73.9,52.4,29.97,SW,225,1.2,2.8,47,0.00,BKN,,0.00,WeatherDisplay:10.37,2013-03-05 20:38:00,
2013-03-05 15:43:00,74.5,52.9,29.97,SW,225,1.1,5.8,47,0.00,BKN,,0.00,WeatherDisplay:10.37,2013-03-05 20:43:00,
2013-03-05 15:48:00,74.8,53.8,29.96,SW,225,2.6,4.2,48,0.00,BKN,,0.00,WeatherDisplay:10.37,2013-03-05 20:48:00,
2013-03-05 15:53:00,75.0,53.4,29.96,SW,225,4.0,8.4,47,0.00,BKN,,0.00,WeatherDisplay:10.37,2013-03-05 20:53:00,
2013-03-05 15:58:00,75.0,53.4,29.95,SW,225,2.2,5.8,47,0.00,BKN,,0.00,WeatherDisplay:10.37,2013-03-05 20:58:00,
2013-03-05 16:03:00,75.4,54.3,29.95,SW,225,1.7,2.8,48,0.00,BKN,,0.00,WeatherDisplay:10.37,2013-03-05 21:03:00,
2013-03-05 16:08:00,75.7,54.1,29.95,West,270,2.1,4.6,47,0.00,BKN,,0.00,WeatherDisplay:10.37,2013-03-05 21:08:00,
2013-03-05 16:13:00,75.6,54.5,29.95,SW,225,2.9,5.8,48,0.00,BKN,,0.00,WeatherDisplay:10.37,2013-03-05 21:13:00,
2013-03-05 16:18:00,74.7,54.2,29.95,SW,225,2.3,5.8,49,0.00,BKN,,0.00,WeatherDisplay:10.37,2013-03-05 21:18:00,
2013-03-05 16:23:00,74.5,54.1,29.95,South,180,3.0,5.8,49,0.00,BKN,,0.00,WeatherDisplay:10.37,2013-03-05 21:23:00,
2013-03-05 16:28:00,74.7,55.3,29.94,West,270,2.6,5.8,51,0.00,BKN,,0.00,WeatherDisplay:10.37,2013-03-05 21:28:00,
2013-03-05 16:33:00,74.8,54.9,29.94,SW,225,0.8,2.8,50,0.00,BKN,,0.00,WeatherDisplay:10.37,2013-03-05 21:33:00,
2013-03-05 16:38:00,74.8,54.4,29.94,SW,225,1.5,4.6,49,0.00,BKN,,0.00,WeatherDisplay:10.37,2013-03-05 21:38:00,
2013-03-05 16:43:00,74.3,55.0,29.94,SW,225,0.3,2.8,51,0.00,BKN,,0.00,WeatherDisplay:10.37,2013-03-05 21:43:00,
2013-03-05 16:48:00,74.1,54.8,29.94,West,270,3.6,6.9,51,0.00,BKN,,0.00,WeatherDisplay:10.37,2013-03-05 21:48:00,
2013-03-05 16:53:00,73.0,54.4,29.93,SW,225,2.2,5.8,52,0.00,BKN,,0.00,WeatherDisplay:10.37,2013-03-05 21:53:00,
2013-03-05 16:58:00,73.2,54.5,29.92,West,270,3.1,5.8,52,0.00,BKN,,0.00,WeatherDisplay:10.37,2013-03-05 21:58:00,
2013-03-05 17:03:00,73.4,55.2,29.93,SW,225,1.6,2.3,53,0.00,BKN,,0.00,WeatherDisplay:10.37,2013-03-05 22:03:00,
2013-03-05 17:08:00,73.2,54.5,29.93,West,270,2.9,5.8,52,0.00,BKN,,0.00,WeatherDisplay:10.37,2013-03-05 22:08:00,
2013-03-05 17:13:00,73.0,54.4,29.93,SW,225,2.4,4.6,52,0.00,BKN,,0.00,WeatherDisplay:10.37,2013-03-05 22:13:00,
2013-03-05 17:18:00,73.0,54.9,29.94,SW,225,1.8,4.6,53,0.00,BKN,,0.00,WeatherDisplay:10.37,2013-03-05 22:18:00,
2013-03-05 17:23:00,72.9,54.7,29.94,West,270,1.8,5.6,53,0.00,BKN,,0.00,WeatherDisplay:10.37,2013-03-05 22:23:00,
2013-03-05 17:28:00,72.3,54.7,29.94,SW,225,0.9,2.8,54,0.00,BKN,,0.00,WeatherDisplay:10.37,2013-03-05 22:28:00,
2013-03-05 17:33:00,72.1,54.6,29.94,West,270,1.4,5.8,54,0.00,BKN,,0.00,WeatherDisplay:10.37,2013-03-05 22:33:00,
2013-03-05 17:38:00,71.8,54.7,29.94,SW,225,1.6,2.8,55,0.00,BKN,,0.00,WeatherDisplay:10.37,2013-03-05 22:38:00,
2013-03-05 17:43:00,71.4,54.4,29.94,SW,225,1.4,4.6,55,0.00,BKN,,0.00,WeatherDisplay:10.37,2013-03-05 22:43:00,
2013-03-05 17:48:00,71.2,54.7,29.94,SW,225,1.8,2.8,56,0.00,BKN,,0.00,WeatherDisplay:10.37,2013-03-05 22:48:00,
2013-03-05 17:53:00,71.2,54.7,29.94,SW,225,2.1,4.6,56,0.00,BKN,,0.00,WeatherDisplay:10.37,2013-03-05 22:53:00,
2013-03-05 17:58:00,71.2,54.7,29.93,SW,225,2.1,5.8,56,0.00,BKN,,0.00,WeatherDisplay:10.37,2013-03-05 22:58:00,
2013-03-05 18:03:00,70.9,54.9,29.94,SW,225,1.0,4.6,57,0.00,BKN,,0.00,WeatherDisplay:10.37,2013-03-05 23:03:00,
2013-03-05 18:08:00,70.5,55.0,29.93,SW,225,1.6,4.6,58,0.00,BKN,,0.00,WeatherDisplay:10.37,2013-03-05 23:08:00,
2013-03-05 18:13:00,70.3,54.9,29.93,SW,225,0.6,2.3,58,0.00,BKN,,0.00,WeatherDisplay:10.37,2013-03-05 23:13:00,
2013-03-05 18:18:00,70.2,54.7,29.93,SW,225,0.0,0.0,58,0.00,BKN,,0.00,WeatherDisplay:10.37,2013-03-05 23:18:00,
2013-03-05 18:23:00,69.6,54.7,29.93,SW,225,0.8,2.8,59,0.00,BKN,,0.00,WeatherDisplay:10.37,2013-03-05 23:23:00,
2013-03-05 18:28:00,69.4,54.9,29.92,SW,225,2.3,5.8,60,0.00,BKN,,0.00,WeatherDisplay:10.37,2013-03-05 23:28:00,
2013-03-05 18:33:00,69.4,54.9,29.92,SW,225,0.6,2.3,60,0.00,BKN,,0.00,WeatherDisplay:10.37,2013-03-05 23:33:00,
2013-03-05 18:38:00,69.1,54.6,29.92,SW,225,0.9,2.3,60,0.00,BKN,,0.00,WeatherDisplay:10.37,2013-03-05 23:38:00,
2013-03-05 18:43:00,68.7,54.7,29.92,SW,225,0.4,2.8,61,0.00,BKN,,0.00,WeatherDisplay:10.37,2013-03-05 23:43:00,
2013-03-05 18:48:00,68.7,54.7,29.91,SW,225,1.6,5.8,61,0.00,BKN,,0.00,WeatherDisplay:10.37,2013-03-05 23:48:00,
2013-03-05 18:53:00,68.4,54.8,29.91,SW,225,1.4,2.3,62,0.00,BKN,,0.00,WeatherDisplay:10.37,2013-03-05 23:53:00,
2013-03-05 18:58:00,68.2,54.7,29.91,SW,225,0.3,4.6,62,0.00,BKN,,0.00,WeatherDisplay:10.37,2013-03-05 23:58:00,
2013-03-05 19:03:00,68.2,54.7,29.92,SW,225,0.6,2.3,62,0.00,SCT,,0.00,WeatherDisplay:10.37,2013-03-06 00:03:00,
2013-03-05 19:08:00,67.8,54.8,29.92,SW,225,1.0,2.3,63,0.00,SCT,,0.00,WeatherDisplay:10.37,2013-03-06 00:08:00,
2013-03-05 19:13:00,67.6,54.6,29.92,South,180,1.3,2.3,63,0.00,SCT,,0.00,WeatherDisplay:10.37,2013-03-06 00:13:00,
2013-03-05 19:18:00,67.3,54.3,29.92,SW,225,1.2,4.6,63,0.00,SCT,,0.00,WeatherDisplay:10.37,2013-03-06 00:18:00,
2013-03-05 19:23:00,67.1,54.5,29.92,West,270,0.8,2.3,64,0.00,SCT,,0.00,WeatherDisplay:10.37,2013-03-06 00:23:00,
2013-03-05 19:28:00,66.9,54.3,29.92,West,270,0.3,2.8,64,0.00,SCT,,0.00,WeatherDisplay:10.37,2013-03-06 00:28:00,
2013-03-05 19:33:00,66.9,54.3,29.93,West,270,2.2,4.6,64,0.00,SCT,,0.00,WeatherDisplay:10.37,2013-03-06 00:33:00,
2013-03-05 19:38:00,66.9,54.3,29.92,West,270,0.0,1.1,64,0.00,SCT,,0.00,WeatherDisplay:10.37,2013-03-06 00:38:00,
2013-03-05 19:43:00,66.4,54.3,29.92,West,270,0.2,2.8,65,0.00,SCT,,0.00,WeatherDisplay:10.37,2013-03-06 00:43:00,
2013-03-05 19:48:00,66.2,54.1,29.92,SW,225,0.0,4.6,65,0.00,SCT,,0.00,WeatherDisplay:10.37,2013-03-06 00:48:00,
2013-03-05 19:53:00,66.0,54.3,29.92,SW,225,1.3,4.6,66,0.00,SCT,,0.00,WeatherDisplay:10.37,2013-03-06 00:53:00,
2013-03-05 19:58:00,66.0,53.9,29.92,SW,225,0.0,2.3,65,0.00,SCT,,0.00,WeatherDisplay:10.37,2013-03-06 00:58:00,
2013-03-05 20:03:00,66.0,54.3,29.92,SW,225,0.0,1.1,66,0.00,SCT,,0.00,WeatherDisplay:10.37,2013-03-06 01:03:00,
2013-03-05 20:08:00,65.8,54.2,29.92,SW,225,0.4,4.6,66,0.00,SCT,,0.00,WeatherDisplay:10.37,2013-03-06 01:08:00,
2013-03-05 20:13:00,65.8,54.2,29.92,SW,225,1.5,4.6,66,0.00,SCT,,0.00,WeatherDisplay:10.37,2013-03-06 01:13:00,
2013-03-05 20:18:00,65.8,54.2,29.92,SW,225,1.1,4.6,66,0.00,SCT,,0.00,WeatherDisplay:10.37,2013-03-06 01:18:00,
2013-03-05 20:23:00,65.8,54.2,29.92,SW,225,0.7,2.8,66,0.00,SCT,,0.00,WeatherDisplay:10.37,2013-03-06 01:23:00,
2013-03-05 20:28:00,65.8,54.6,29.92,SW,225,1.3,2.8,67,0.00,SCT,,0.00,WeatherDisplay:10.37,2013-03-06 01:28:00,
2013-03-05 20:33:00,65.5,54.2,29.92,SW,225,0.9,2.8,67,0.00,SCT,,0.00,WeatherDisplay:10.37,2013-03-06 01:33:00,
2013-03-05 20:38:00,65.5,54.2,29.92,SW,225,2.3,4.6,67,0.00,SCT,,0.00,WeatherDisplay:10.37,2013-03-06 01:38:00,
2013-03-05 20:43:00,65.3,54.1,29.92,SW,225,1.4,4.6,67,0.00,SCT,,0.00,WeatherDisplay:10.37,2013-03-06 01:43:00,
2013-03-05 20:48:00,65.3,54.5,29.92,SW,225,2.0,4.6,68,0.00,SCT,,0.00,WeatherDisplay:10.37,2013-03-06 01:48:00,
2013-03-05 20:53:00,65.1,54.3,29.92,SW,225,0.2,4.6,68,0.00,SCT,,0.00,WeatherDisplay:10.37,2013-03-06 01:53:00,
2013-03-05 20:58:00,64.9,54.5,29.92,SW,225,1.7,4.6,69,0.00,SCT,,0.00,WeatherDisplay:10.37,2013-03-06 01:58:00,
2013-03-05 21:03:00,64.9,54.5,29.92,SE,135,0.7,2.8,69,0.00,SCT,,0.00,WeatherDisplay:10.37,2013-03-06 02:03:00,
2013-03-05 21:08:00,64.8,54.3,29.92,SW,225,1.1,2.8,69,0.00,SCT,,0.00,WeatherDisplay:10.37,2013-03-06 02:08:00,
2013-03-05 21:13:00,64.6,54.6,29.92,SW,225,0.5,2.8,70,0.00,SCT,,0.00,WeatherDisplay:10.37,2013-03-06 02:13:00,
2013-03-05 21:18:00,64.4,54.4,29.92,West,270,0.7,2.3,70,0.00,SCT,,0.00,WeatherDisplay:10.37,2013-03-06 02:18:00,
2013-03-05 21:23:00,64.2,54.6,29.91,West,270,1.4,2.3,71,0.00,SCT,,0.00,WeatherDisplay:10.37,2013-03-06 02:23:00,
2013-03-05 21:28:00,64.2,55.0,29.91,SW,225,1.9,5.8,72,0.00,SCT,,0.00,WeatherDisplay:10.37,2013-03-06 02:28:00,
2013-03-05 21:33:00,64.0,54.8,29.90,SW,225,1.4,4.6,72,0.00,SCT,,0.00,WeatherDisplay:10.37,2013-03-06 02:33:00,
2013-03-05 21:38:00,64.0,55.2,29.90,South,180,1.3,4.6,73,0.00,SCT,,0.00,WeatherDisplay:10.37,2013-03-06 02:38:00,
2013-03-05 21:43:00,63.9,55.0,29.90,SW,225,1.2,4.6,73,0.00,SCT,,0.00,WeatherDisplay:10.37,2013-03-06 02:43:00,
2013-03-05 21:48:00,63.9,55.4,29.91,SW,225,2.0,5.8,74,0.00,SCT,,0.00,WeatherDisplay:10.37,2013-03-06 02:48:00,
2013-03-05 21:53:00,63.7,55.2,29.91,SW,225,2.2,4.6,74,0.00,SCT,,0.00,WeatherDisplay:10.37,2013-03-06 02:53:00,
2013-03-05 21:58:00,63.7,55.6,29.91,SW,225,1.8,4.6,75,0.00,SCT,,0.00,WeatherDisplay:10.37,2013-03-06 02:58:00,
2013-03-05 22:03:00,63.7,55.6,29.91,SW,225,1.5,5.8,75,0.00,SCT,,0.00,WeatherDisplay:10.37,2013-03-06 03:03:00,
2013-03-05 22:08:00,63.9,55.8,29.91,SW,225,1.9,4.6,75,0.00,SCT,,0.00,WeatherDisplay:10.37,2013-03-06 03:08:00,
2013-03-05 22:13:00,63.9,55.8,29.91,SW,225,2.7,5.8,75,0.00,SCT,,0.00,WeatherDisplay:10.37,2013-03-06 03:13:00,
2013-03-05 22:18:00,63.9,56.1,29.90,SW,225,1.5,2.3,76,0.00,SCT,,0.00,WeatherDisplay:10.37,2013-03-06 03:18:00,
2013-03-05 22:23:00,63.7,56.0,29.90,SW,225,1.9,4.6,76,0.00,SCT,,0.00,WeatherDisplay:10.37,2013-03-06 03:23:00,
2013-03-05 22:28:00,63.7,56.0,29.90,SW,225,1.3,5.8,76,0.00,SCT,,0.00,WeatherDisplay:10.37,2013-03-06 03:28:00,
2013-03-05 22:33:00,63.7,56.3,29.91,SW,225,0.9,2.8,77,0.00,SCT,,0.00,WeatherDisplay:10.37,2013-03-06 03:33:00,
2013-03-05 22:38:00,63.7,56.3,29.90,SW,225,2.7,5.8,77,0.00,SCT,,0.00,WeatherDisplay:10.37,2013-03-06 03:38:00,
2013-03-05 22:43:00,63.9,56.5,29.90,West,270,1.9,5.8,77,0.00,SCT,,0.00,WeatherDisplay:10.37,2013-03-06 03:43:00,
2013-03-05 22:48:00,63.9,56.5,29.90,SW,225,1.2,4.2,77,0.00,SCT,,0.00,WeatherDisplay:10.37,2013-03-06 03:48:00,
2013-03-05 22:53:00,63.7,56.7,29.90,SW,225,2.5,5.8,78,0.00,SCT,,0.00,WeatherDisplay:10.37,2013-03-06 03:53:00,
2013-03-05 22:58:00,64.0,57.0,29.90,SW,225,2.0,5.8,78,0.00,SCT,,0.00,WeatherDisplay:10.37,2013-03-06 03:58:00,
2013-03-05 23:03:00,63.9,56.9,29.90,West,270,2.3,6.9,78,0.00,BKN,,0.00,WeatherDisplay:10.37,2013-03-06 04:03:00,
2013-03-05 23:08:00,63.9,56.9,29.90,SW,225,2.3,4.6,78,0.00,BKN,,0.00,WeatherDisplay:10.37,2013-03-06 04:08:00,
2013-03-05 23:13:00,63.7,56.7,29.90,SW,225,1.7,4.6,78,0.00,BKN,,0.00,WeatherDisplay:10.37,2013-03-06 04:13:00,
2013-03-05 23:18:00,63.7,56.7,29.89,South,180,1.4,4.6,78,0.00,BKN,,0.00,WeatherDisplay:10.37,2013-03-06 04:18:00,
2013-03-05 23:23:00,63.7,57.0,29.89,SW,225,1.8,5.8,79,0.00,BKN,,0.00,WeatherDisplay:10.37,2013-03-06 04:23:00,
2013-03-05 23:28:00,63.7,57.0,29.89,SW,225,2.9,8.1,79,0.00,BKN,,0.00,WeatherDisplay:10.37,2013-03-06 04:28:00,
2013-03-05 23:33:00,63.9,57.2,29.89,SW,225,2.3,5.8,79,0.00,BKN,,0.00,WeatherDisplay:10.37,2013-03-06 04:33:00,
2013-03-05 23:38:00,64.0,57.4,29.88,SW,225,2.3,4.6,79,0.00,BKN,,0.00,WeatherDisplay:10.37,2013-03-06 04:38:00,
2013-03-05 23:43:00,64.0,57.4,29.88,West,270,2.6,5.6,79,0.00,BKN,,0.00,WeatherDisplay:10.37,2013-03-06 04:43:00,
2013-03-05 23:48:00,64.0,57.4,29.88,SW,225,2.7,5.8,79,0.00,BKN,,0.00,WeatherDisplay:10.37,2013-03-06 04:48:00,
2013-03-05 23:53:00,63.9,57.6,29.87,SW,225,1.5,5.8,80,0.00,BKN,,0.00,WeatherDisplay:10.37,2013-03-06 04:53:00,
2013-03-05 23:58:00,63.7,57.4,29.87,West,270,1.7,4.6,80,0.00,BKN,,0.00,WeatherDisplay:10.37,2013-03-06 04:58:00,